Location: Bannatyne
(13.0833°N, 59.5333°W)
Time: 06:22:44
(UTC+00:00)

Vanguard 3 - Pass Details

Date: 02 February 2020
Orbit: 508 x 3263 km, 33.3° (Epoch: 17 February)

Event Time Altitude Azimuth Distance (km) Brightness Sun altitude
Rises 14:23:12 0° 198° (SSW) 3,863 10.9 49.8°
Reaches altitude 10° 14:26:07 10° 184° (S) 3,248 10.8 50.3°
Maximum altitude 14:32:49 25° 132° (SE) 3,007 11.4 51.4°
Drops below altitude 10° 14:42:47 10° 84° (E) 5,019 11.6 52.9°
Sets 14:48:41 0° 73° (ENE) 6,498 11.9 53.7°
